La Junta, CO

4:46 AM MDT on April 21, 2018 (GMT -0600)
La Junta Municipal

Weather History for KLHX - October, 2012

Change the Weather History Date:

Thursday, October 18, 2012

  Actual Average Record
Temperature  
Mean Temperature 46 °F 53 °F  
Max Temperature 60 °F 69 °F 87 °F (2003)
Min Temperature 31 °F 38 °F 23 °F (1968)
Degree Days  
Heating Degree Days 19 12  
Month to date heating degree days 188 161  
Since 1 July heating degree days 218 234  
Cooling Degree Days 0 0  
Month to date cooling degree days 3 7  
Year to date cooling degree days 1733 1223  
Moisture  
Dew Point 16 °F    
Average Humidity 32    
Maximum Humidity 47    
Minimum Humidity 17    
Precipitation  
Precipitation 0.00 in 0.04 in 1.06 in (1960)
Month to date precipitation 0.25 0.54  
Year to date precipitation 5.51  
Sea Level Pressure  
Sea Level Pressure 30.04 in    
Wind  
Wind Speed 6 mph (WSW)    
Max Wind Speed 14 mph    
Max Gust Speed 15 mph    
Visibility 10 miles    
Events      
T = Trace of Precipitation, MM = Missing Value Source: NWS Daily Summary

Daily Weather History Graph

Daily Weather History Graph

Search for Another Location

Airport or City:

Astronomy

Oct. 18, 2012 Rise Set
Actual Time 7:06 AM MDT 6:11 PM MDT
Civil Twilight 6:39 AM MDT 6:38 PM MDT
Nautical Twilight 6:08 AM MDT 7:08 PM MDT
Astronomical Twilight 5:38 AM MDT 7:39 PM MDT
Moon 10:47 AM MDT (10/18) 8:51 PM MDT (10/18)
Length of Visible Light 11h 58m
Length of Day
11h 05m
Waxing Crescent, 15% of the Moon is Illuminated
Oct 18
Waxing Crescent
Oct 21
First Quarter
Oct 29
Full
Nov 6
Last Quarter
Nov 13
New

Hourly Weather History & Observations

Time (MDT) Temp. Windchill Dew Point Humidity Pressure Visibility Wind Dir Wind Speed Gust Speed Precip Events Conditions
12:53 AM 37.0 °F 31.6 °F 14.0 °F 39% 29.94 in 10.0 mi NNW 6.9 mph - N/A   Clear
1:53 AM 35.1 °F 28.6 °F 12.9 °F 40% 29.98 in 10.0 mi North 8.1 mph - N/A   Clear
2:53 AM 36.0 °F 28.0 °F 14.0 °F 41% 29.99 in 10.0 mi North 11.5 mph - N/A   Clear
3:53 AM 35.1 °F 29.3 °F 15.1 °F 44% 30.00 in 10.0 mi NNE 6.9 mph - N/A   Clear
4:53 AM 33.1 °F 28.7 °F 15.1 °F 48% 30.03 in 10.0 mi NE 4.6 mph - N/A   Clear
5:53 AM 37.0 °F - 14.0 °F 39% 30.05 in 10.0 mi Calm Calm - N/A   Clear
6:53 AM 33.1 °F 25.5 °F 14.0 °F 46% 30.08 in 10.0 mi SW 9.2 mph - N/A   Clear
7:53 AM 33.1 °F 24.9 °F 12.9 °F 43% 30.09 in 10.0 mi West 10.4 mph - N/A   Clear
8:53 AM 39.9 °F 34.5 °F 14.0 °F 35% 30.09 in 10.0 mi West 8.1 mph - N/A   Clear
9:53 AM 46.0 °F - 16.0 °F 30% 30.08 in 10.0 mi Calm Calm - N/A   Clear
10:53 AM 48.9 °F - 16.0 °F 27% 30.08 in 10.0 mi Calm Calm - N/A   Clear
11:53 AM 51.1 °F - 16.0 °F 25% 30.06 in 10.0 mi East 5.8 mph - N/A   Clear
1:53 PM 57.0 °F - 17.1 °F 21% 30.01 in 10.0 mi Variable 5.8 mph - N/A   Clear
2:53 PM 57.0 °F - 16.0 °F 20% 30.01 in 10.0 mi ESE 5.8 mph - N/A   Clear
3:53 PM 60.1 °F - 16.0 °F 18% 29.99 in 10.0 mi NE 6.9 mph - N/A   Clear
4:53 PM 59.0 °F - 16.0 °F 19% 30.00 in 10.0 mi SE 3.5 mph - N/A   Clear
5:53 PM 57.0 °F - 17.1 °F 21% 30.00 in 10.0 mi South 5.8 mph - N/A   Clear
6:53 PM 51.1 °F - 18.0 °F 27% 30.04 in 10.0 mi SW 5.8 mph - N/A   Clear
7:53 PM 48.0 °F - 18.0 °F 30% 30.07 in 10.0 mi SW 5.8 mph - N/A   Clear
8:53 PM 50.0 °F - 17.1 °F 27% 30.07 in 10.0 mi SW 5.8 mph - N/A   Clear
9:53 PM 41.0 °F 37.1 °F 21.0 °F 45% 30.09 in 10.0 mi SE 5.8 mph - N/A   Clear
10:53 PM 41.0 °F 38.0 °F 18.0 °F 40% 30.09 in 10.0 mi West 4.6 mph - N/A   Clear
11:53 PM 42.1 °F 35.2 °F 15.1 °F 34% 30.06 in 10.0 mi West 12.7 mph - N/A   Clear